Weather History for KHRO - November, 2012

Change the Weather History Date:

Sunday, November 18, 2012

  Actual Average Record
Temperature  
Mean Temperature 49 °F 48 °F  
Max Temperature 65 °F 58 °F 84 °F (1908)
Min Temperature 32 °F 37 °F 10 °F (1903)
Degree Days  
Heating Degree Days 16 18  
Month to date heating degree days 260 256  
Since 1 July heating degree days 554 521  
Cooling Degree Days 0 0  
Month to date cooling degree days 2 0  
Year to date cooling degree days 1961 1412  
Moisture  
Dew Point 29 °F    
Average Humidity 50    
Maximum Humidity 75    
Minimum Humidity 24    
Precipitation  
Precipitation 0.00 in 0.14 in 2.26 in (1984)
Month to date precipitation 0.78 2.63  
Year to date precipitation 27.10 39.34  
Snow  
Snow 0.00 in 0.00 in 1.70 in (1972)
Month to date snowfall 0.0 0.0  
Since 1 July snowfall 0.0 0.1  
Since 1 September snowfall 0.0 0.1  
Snow Depth 0.00 in    
Sea Level Pressure  
Sea Level Pressure 30.31 in    
Wind  
Wind Speed 8 mph (SSE)    
Max Wind Speed 16 mph    
Max Gust Speed 18 mph    
Visibility 10 miles    
Events      
T = Trace of Precipitation, MM = Missing Value Source: NWS Daily Summary

Daily Weather History Graph

Daily Weather History Graph

Search for Another Location

Airport or City:

Trip Planner

Search our weather history database for the weather conditions in past years. The results will help you decide how hot, cold, wet, or windy it might be!

Date:

Astronomy

Nov. 18, 2012 Rise Set
Actual Time 6:53 AM CST 5:02 PM CST
Civil Twilight 6:25 AM CST 5:29 PM CST
Nautical Twilight 5:54 AM CST 6:01 PM CST
Astronomical Twilight 5:23 AM CST 6:31 PM CST
Moon 11:22 AM CST (11/18) 10:20 PM CST (11/18)
Length of Visible Light 11h 04m
Length of Day
10h 09m
Waxing Crescent, 30% of the Moon is Illuminated
Nov 18
Waxing Crescent
Nov 20
First Quarter
Nov 28
Full
Dec 6
Last Quarter
Dec 13
New

Hourly Weather History & Observations

Time (CST) Temp. Windchill Dew Point Humidity Pressure Visibility Wind Dir Wind Speed Gust Speed Precip Events Conditions
12:53 AM 37.0 °F 34.5 °F 28.0 °F 70% 30.37 in 10.0 mi SSE 3.5 mph - N/A   Clear
1:53 AM 37.0 °F 33.3 °F 28.0 °F 70% 30.36 in 10.0 mi SSE 4.6 mph - N/A   Clear
2:53 AM 34.0 °F 31.0 °F 27.0 °F 75% 30.36 in 10.0 mi SSE 3.5 mph - N/A   Clear
3:53 AM 33.8 °F 29.6 °F 26.6 °F 75% 30.34 in 10.0 mi South 4.6 mph - N/A   Clear
4:53 AM 34.0 °F 31.0 °F 27.0 °F 75% 30.35 in 10.0 mi SSE 3.5 mph - N/A   Clear
5:53 AM 33.1 °F 27.7 °F 27.0 °F 78% 30.35 in 10.0 mi SSE 5.8 mph - N/A   Clear
6:53 AM 33.1 °F 26.9 °F 27.0 °F 78% 30.35 in 10.0 mi SE 6.9 mph - N/A   Clear
7:53 AM 37.9 °F 33.5 °F 28.0 °F 68% 30.36 in 10.0 mi SE 5.8 mph - N/A   Clear
8:53 AM 44.1 °F 39.5 °F 28.9 °F 55% 30.35 in 10.0 mi SE 8.1 mph - N/A   Clear
9:53 AM 51.1 °F - 32.0 °F 48% 30.35 in 10.0 mi SE 9.2 mph - N/A   Clear
10:53 AM 57.0 °F - 30.0 °F 36% 30.35 in 10.0 mi SSE 11.5 mph - N/A   Clear
11:53 AM 60.1 °F - 28.9 °F 31% 30.32 in 10.0 mi SSE 9.2 mph - N/A   Clear
12:53 PM 63.0 °F - 30.0 °F 29% 30.29 in 10.0 mi SSE 11.5 mph - N/A   Clear
1:53 PM 64.9 °F - 26.1 °F 23% 30.26 in 10.0 mi SSE 9.2 mph - N/A   Clear
2:53 PM 64.0 °F - 26.1 °F 24% 30.26 in 10.0 mi South 10.4 mph - N/A   Clear
3:53 PM 63.0 °F - 26.1 °F 25% 30.25 in 10.0 mi SSE 10.4 mph - N/A   Clear
4:53 PM 55.9 °F - 26.1 °F 32% 30.27 in 10.0 mi South 6.9 mph - N/A   Clear
5:53 PM 51.1 °F - 26.1 °F 38% 30.27 in 10.0 mi SSE 9.2 mph - N/A   Clear
6:53 PM 52.0 °F - 30.0 °F 43% 30.28 in 10.0 mi South 9.2 mph - N/A   Clear
7:53 PM 50.0 °F - 30.0 °F 46% 30.29 in 10.0 mi SSE 6.9 mph - N/A   Clear
8:53 PM 51.1 °F - 30.9 °F 46% 30.28 in 10.0 mi SE 8.1 mph - N/A   Clear
9:53 PM 51.1 °F - 33.1 °F 50% 30.28 in 10.0 mi SSE 8.1 mph - N/A   Clear
10:53 PM 51.8 °F - 33.8 °F 50% 30.27 in 10.0 mi SE 9.2 mph - N/A   Overcast
11:53 PM 52.0 °F - 35.1 °F 53% 30.24 in 10.0 mi SSE 11.5 mph - N/A   Overcast